POLYTECH-UNIVERSE 3 (R*)

Last updated on Sun Jun 21 2026 00:03:20 GMT+0000 (Coordinated Universal Time)

1 57191U 23091AB 26171.43573612 .00004400 00000+0 21198-3 0 9997 2 57191 97.5043 229.2023 0017010 116.4826 243.8155 15.19138885164446
UTC large
Height (km)
Speed (km/s)
/
Latitude / Longitude
Inclination (degrees)
Orbital Period (minutes)
Azimuth
Elevation
Range (km)
Doppler Factor

Next 0 passes for location: London (51.5072 / 0.1276)

No passes found over London.
POLYTECH-UNIVERSE 3 (R*)